Location: Newark
(50.4348°N, 30.5552°E)
Time: 01:35:11
(UTC+00:00)

Altair - Pass Details

Date: 29 January 2020
Orbit: 1502 x 1682 km, 47.2° (Epoch: 19 February)

Event Time Altitude Azimuth Distance (km) Brightness Sun altitude
Rises 08:15:05 0° 263° (W) 4,903 9.9 16.9°
Reaches altitude 10° 08:18:13 10° 262° (W) 3,929 9.5 17.2°
Maximum altitude 08:28:20 76° 180° (S) 1,730 8.3 17.9°
Drops below altitude 10° 08:38:26 10° 97° (E) 3,924 10.1 18.6°
Sets 08:41:33 0° 96° (E) 4,897 10.5 18.8°
